Weather History for CYHZ - March, 2014

Change the Weather History Date:

Tuesday, March 4, 2014

  Actual Average Record
Temperature  
Mean Temperature 8 °F -  
Max Temperature 18 °F 38 °F 51 °F (1999)
Min Temperature -3 °F 22 °F -3 °F (2014)
Degree Days  
Heating Degree Days 58    
Moisture  
Dew Point -5 °F    
Average Humidity 52    
Maximum Humidity 68    
Minimum Humidity 26    
Precipitation  
Precipitation 0.00 in 0.16 in - ()
Sea Level Pressure  
Sea Level Pressure 30.25 in    
Wind  
Wind Speed 9 mph ()    
Max Wind Speed 16 mph    
Max Gust Speed 23 mph    
Visibility 15.0 miles    
Events Snow    
Averages and records for this station are not official NWS values.
T = Trace of Precipitation, MM = Missing Value Source: Averaged Metar Reports

Daily Weather History Graph

Daily Weather History Graph

Search for Another Location

Airport or City:

Trip Planner

Search our weather history database for the weather conditions in past years. The results will help you decide how hot, cold, wet, or windy it might be!

Date:

Astronomy

Mar. 04, 2014 Rise Set
Actual Time 6:46 AM AST 6:05 PM AST
Civil Twilight 6:17 AM AST 6:34 PM AST
Nautical Twilight 5:43 AM AST 7:08 PM AST
Astronomical Twilight 5:09 AM AST 7:42 PM AST
Moon 8:19 AM AST (3/4) 10:20 PM AST (3/4)
Length of Visible Light 12h 17m
Length of Day
11h 19m
Waxing Crescent, 14% of the Moon is Illuminated
Mar 4
Waxing Crescent
Mar 8
First Quarter
Mar 16
Full
Mar 23
Last Quarter
Mar 30
New

Hourly Weather History & Observations

Time (AST) Temp. Windchill Dew Point Humidity Pressure Visibility Wind Dir Wind Speed Gust Speed Precip Events Conditions
12:00 AM 6.8 °F -9.3 °F -4.0 °F 61% 30.15 in 15.0 mi North 12.7 mph - N/A   Partly Cloudy
1:00 AM 5.0 °F -13.0 °F -7.6 °F 56% 30.18 in 14.0 mi North 15.0 mph 23.0 mph N/A   Clear
2:00 AM 3 °F - -12 °F 33% 30.20 in 15 mi North 15.0 mph - -  
2:00 AM 3.2 °F -15.9 °F -11.2 °F 51% 30.19 in 15.0 mi NNW 16.1 mph - N/A   Clear
3:00 AM 1.4 °F -16.1 °F -11.2 °F 56% 30.20 in 15.0 mi NNW 12.7 mph - N/A   Clear
4:00 AM -0.4 °F -19.2 °F -13.0 °F 55% 30.21 in 15.0 mi NNW 13.8 mph - N/A   Clear
5:00 AM -2.2 °F -18.0 °F -13.0 °F 60% 30.23 in 15.0 mi NW 9.2 mph - N/A   Clear
6:00 AM -2.2 °F -18.0 °F -13.0 °F 60% 30.25 in 15.0 mi NW 9.2 mph - N/A   Clear
7:00 AM -2.2 °F -18.0 °F -14.8 °F 55% 30.27 in 15.0 mi WNW 9.2 mph - N/A   Clear
8:00 AM 1 °F - -14 °F 32% 30.29 in 15 mi NW 6.9 mph - -  
8:00 AM 1.4 °F -11.3 °F -14.8 °F 47% 30.28 in 15.0 mi NW 6.9 mph - N/A   Clear
9:00 AM 3.2 °F - -11.2 °F 51% 30.31 in 15.0 mi WNW 2.3 mph - N/A   Clear
10:00 AM 6.8 °F - -9.4 °F 48% 30.30 in 15.0 mi Variable 2.3 mph - N/A   Partly Cloudy
11:00 AM 8.6 °F 0.1 °F -9.4 °F 44% 30.30 in 15.0 mi West 4.6 mph - N/A   Partly Cloudy
12:00 PM 12.2 °F 1.7 °F -7.6 °F 41% 30.28 in 15.0 mi NW 6.9 mph - N/A   Partly Cloudy
1:00 PM 14.0 °F -0.8 °F -4.0 °F 45% 30.27 in 15.0 mi WSW 13.8 mph - N/A   Partly Cloudy
2:00 PM 17 °F - -3 °F 26% 30.25 in 15 mi West 5.8 mph - -   Scattered Clouds
2:00 PM 17.6 °F 8.2 °F -2.2 °F 42% 30.25 in 15.0 mi West 6.9 mph - N/A   Partly Cloudy
3:00 PM 17.6 °F 6.4 °F -2.2 °F 42% 30.24 in 15.0 mi SW 9.2 mph - N/A   Partly Cloudy
4:00 PM 17.6 °F 3.7 °F 1.4 °F 49% 30.23 in 15.0 mi SW 13.8 mph - N/A   Partly Cloudy
5:00 PM 17.6 °F 4.3 °F 1.4 °F 49% 30.23 in 15.0 mi SW 12.7 mph - N/A   Partly Cloudy
6:00 PM 14.0 °F 1.2 °F 3.2 °F 62% 30.25 in 15.0 mi SSW 10.4 mph 17.3 mph N/A   Partly Cloudy
7:00 PM 14.0 °F 2.0 °F 5.0 °F 67% 30.27 in 15.0 mi SSW 9.2 mph - N/A   Partly Cloudy
8:00 PM 14 °F - 5 °F 56% 30.29 in 15 mi NW 4.6 mph - -   Clear
8:00 PM 14.0 °F 6.5 °F 5.0 °F 67% 30.28 in 15.0 mi NW 4.6 mph - N/A   Mostly Cloudy
9:00 PM 14.0 °F 8.2 °F 5.0 °F 67% 30.28 in 15.0 mi WSW 3.5 mph - N/A   Overcast
10:00 PM 15.8 °F 6.1 °F 3.2 °F 58% 30.28 in 15.0 mi WSW 6.9 mph - N/A   Overcast
11:00 PM 15.8 °F 6.1 °F 6.8 °F 68% 30.28 in 15.0 mi SW 6.9 mph - N/A   Overcast
11:29 PM 15.8 °F 7.2 °F 5.0 °F 62% 30.28 in 15.0 mi SW 5.8 mph - N/A Snow Light Snow Showers